"2010-12-29 00:00:00",463981,4.803,222.6,0.835,0.099,5.454,102.3135,5.204,6.218,19.59,0,109.9,13.46,5.97,184.6
"2010-12-29 00:00:30",463982,5.273,226.3,5.713,1.085,7.376,102.2773,5.111,6.313,20.24,0,109.9,13.43,5.88,188.3
"2010-12-29 00:01:00",463983,6.259,228.7,5.414,1.21,9.96,102.2474,5.035,6.35,20.35,0,109.9,13.43,5.80,190.7
"2010-12-29 00:01:30",463984,6.792,231.2,3.678,0.693,10.67,102.238,5.011,6.342,19.85,0,109.9,13.43,5.78,193.2
"2010-12-29 00:02:00",463985,6.331,229,6.548,1.076,9.67,102.2299,4.99,6.239,19.9,0,109.9,13.43,5.76,191.0
"2010-12-29 00:02:30",463986,5.613,224.9,6.176,1.26,7.459,102.2378,5.01,6.006,19.57,0,109.9,13.44,5.78,186.9
"2010-12-29 00:03:00",463987,4.479,226.7,2.555,0.12,5.643,102.238,5.011,5.961,20.06,0,109.9,13.47,5.78,188.7
"2010-12-29 00:03:30",463988,5.445,231.7,6.53,1.212,7.878,102.2327,4.997,6.117,20.54,0,109.9,13.44,5.77,193.7
"2010-12-29 00:04:00",463989,6.15,235.4,6.353,1.142,9.7,102.2197,4.964,6.181,20.62,0,109.9,13.44,5.73,197.4
"2010-12-29 00:04:30",463990,6.781,239.3,4.501,0.543,10.84,102.2126,4.946,6.212,20.67,0,109.9,13.44,5.72,201.3
"2010-12-29 00:05:00",463991,6.133,236.9,5.702,1.141,9.17,102.2061,4.93,6.136,20.62,0,109.9,13.44,5.70,198.9
"2010-12-29 00:05:30",463992,5.389,231.4,6.605,1.119,7.039,102.2073,4.933,5.901,20.5,0,109.9,13.44,5.70,193.4
"2010-12-29 00:06:00",463993,4.921,225.2,3.11,0.648,5.917,102.2116,4.944,5.852,20.53,0,109.9,13.45,5.71,187.2
"2010-12-29 00:06:30",463994,5.022,226.5,3.137,0.802,6.535,102.214,4.95,5.884,20.45,0,109.9,13.45,5.72,188.5
"2010-12-29 00:07:00",463995,7.067,240.1,3.538,0.596,11.12,102.22,4.965,6.109,20.69,0,109.9,13.45,5.73,202.1
"2010-12-29 00:07:30",463996,6.728,240.4,4.008,0.859,11.07,102.2334,4.999,6.177,20.46,0,109.9,13.45,5.77,202.4
"2010-12-29 00:08:00",463997,6.368,239.8,5.479,1.277,9.24,102.2292,4.989,6.101,20.69,0,109.8,13.45,5.76,201.8
"2010-12-29 00:08:30",463998,5.744,231.8,6.432,1.228,7.755,102.2284,4.986,5.967,20.36,0,109.8,13.45,5.76,193.8
"2010-12-29 00:09:00",463999,4.498,224.4,2.469,0.164,6.1,102.2488,5.039,5.867,19.28,0,109.9,13.48,5.81,186.4
"2010-12-29 00:09:30",464000,5.54,230.3,5.979,1.305,8.77,102.2811,5.121,5.975,19.01,0,109.8,13.45,5.89,192.3
"2010-12-29 00:10:00",464001,6.07,236.6,6.102,1.027,10.4,102.3037,5.179,6.152,19.06,0,109.8,13.45,5.95,198.6
"2010-12-29 00:10:30",464002,6.083,238.5,4.272,1.04,10.69,102.3114,5.198,6.28,20.03,0,109.8,13.45,5.97,200.5
"2010-12-29 00:11:00",464003,5.974,237.9,5.179,0.992,9.95,102.3029,5.177,6.287,20.72,0,109.8,13.45,5.95,199.9
"2010-12-29 00:11:30",464004,5.06,238,6.836,1.153,7.831,102.2786,5.115,6.008,20.43,0,109.8,13.45,5.88,200.0
"2010-12-29 00:12:00",464005,3.919,229.2,1.422,0.051,5.398,102.2705,5.094,5.926,20.64,0,109.8,13.48,5.86,191.2
"2010-12-29 00:12:30",464006,5.05,236.5,6.21,1.308,7.829,102.2461,5.032,6.065,20.95,0,109.8,13.45,5.80,198.5
"2010-12-29 00:13:00",464007,5.703,239.2,5.968,1.219,9.23,102.2388,5.013,6.079,21.02,0,109.8,13.45,5.78,201.2
"2010-12-29 00:13:30",464008,6.718,240.6,3.249,0.777,10.93,102.2388,5.013,6.188,21.23,0,109.8,13.45,5.78,202.6
"2010-12-29 00:14:00",464009,6.504,237.4,4.811,0.784,10.22,102.2385,5.012,6.148,20.72,0,109.9,13.45,5.78,199.4
"2010-12-29 00:14:30",464010,4.746,226.3,4.405,0.85,7.022,102.2374,5.009,6.01,20.27,0,109.8,13.45,5.78,188.3
"2010-12-29 00:15:00",464011,5.102,226.7,5.232,1.194,6.679,102.2388,5.013,5.862,20.12,0,109.8,13.45,5.78,188.7
"2010-12-29 00:15:30",464012,4.439,222.2,2.258,0.153,6.094,102.2388,5.013,5.888,20.13,0,109.8,13.48,5.78,184.2
"2010-12-29 00:16:00",464013,6.313,230.2,7.133,1.209,10.72,102.2691,5.09,6.203,19.45,0,109.8,13.45,5.86,192.2
"2010-12-29 00:16:30",464014,7.076,233.6,3.952,0.821,11.62,102.3055,5.183,6.248,19.4,0,109.8,13.45,5.95,195.6
"2010-12-29 00:17:00",464015,7.139,234.3,4.175,0.575,11.4,102.327,5.238,6.306,19.1,0,109.8,13.45,6.01,196.3
"2010-12-29 00:17:30",464016,5.179,228.7,3.882,1.027,7.376,102.342,5.277,6.139,18.65,0,109.8,13.45,6.05,190.7
"2010-12-29 00:18:00",464017,5.498,236,5.021,1.248,8.46,102.3717,5.352,6.172,17.84,0,109.8,13.45,6.12,198.0
"2010-12-29 00:18:30",464018,4.508,234.8,2.136,0.15,6.648,102.4022,5.43,6.145,17.25,0,109.8,13.49,6.20,196.8
"2010-12-29 00:19:00",464019,5.602,238.1,6.152,1.249,9.36,102.4381,5.522,6.425,17.31,0,109.8,13.46,6.29,200.1
"2010-12-29 00:19:30",464020,7.055,243.5,4.053,0.806,11.84,102.4616,5.582,6.59,17.32,0,109.8,13.46,6.35,205.5
"2010-12-29 00:20:00",464021,7.247,245.4,5.951,1.013,11.53,102.4791,5.627,6.639,17.29,0,109.8,13.46,6.40,207.4
"2010-12-29 00:20:30",464022,6.23,244.2,6.405,1.244,8.64,102.5068,5.697,6.459,16.74,0,109.8,13.46,6.47,206.2
"2010-12-29 00:21:00",464023,5.244,238.2,4.577,0.718,6.965,102.5105,5.707,6.578,16.86,0,109.8,13.46,6.48,200.2
"2010-12-29 00:21:30",464024,5.108,232.4,3.329,0.483,6.626,102.5105,5.707,6.545,17.49,0,109.8,13.49,6.48,194.4
"2010-12-29 00:22:00",464025,7.144,241.2,7.01,1.048,10.32,102.5102,5.706,6.63,17.58,0,109.8,13.46,6.48,203.2
"2010-12-29 00:22:30",464026,7.351,237.1,4.908,0.897,10.69,102.4879,5.649,6.792,18.51,0,109.8,13.46,6.42,199.1
"2010-12-29 00:23:00",464027,7.114,243.1,3.953,0.701,11.72,102.4774,5.622,6.783,18.22,0,109.8,13.46,6.39,205.1
"2010-12-29 00:23:30",464028,6.731,239.1,7.116,1.211,10.21,102.4771,5.622,6.653,17.47,0,109.8,13.46,6.39,201.1
"2010-12-29 00:24:00",464029,6.129,232.3,7.086,1.128,8.5,102.4823,5.635,6.63,18.03,0,109.8,13.46,6.41,194.3
"2010-12-29 00:24:30",464030,5.688,239.3,6.017,0.647,6.48,102.5029,5.688,6.503,17.35,0,109.8,13.5,6.46,201.3
"2010-12-29 00:25:00",464031,7.038,252.2,8.08,1.092,8.86,102.505,5.693,6.657,17.3,0,109.8,13.46,6.46,214.2
"2010-12-29 00:25:30",464032,6.726,250,6.756,1.111,10.84,102.4989,5.677,6.775,17.65,0,109.8,13.46,6.45,212.0
"2010-12-29 00:26:00",464033,6.225,250.3,7.182,1.323,10.9,102.4864,5.645,6.774,17.68,0,109.8,13.46,6.42,212.3
"2010-12-29 00:26:30",464034,5.935,246.4,6.515,1.143,10.31,102.4881,5.65,6.756,17.6,0,109.8,13.46,6.42,208.4
"2010-12-29 00:27:00",464035,5.229,240.7,9.03,1.017,8.4,102.5122,5.711,6.559,16.71,0,109.8,13.46,6.48,202.7
"2010-12-29 00:27:30",464036,4.017,236.6,1.33,0.246,5.986,102.5241,5.742,6.528,16.92,0,109.8,13.5,6.51,198.6
"2010-12-29 00:28:00",464037,4.57,237.5,6.775,1.3,7.333,102.5249,5.744,6.63,17.43,0,109.8,13.46,6.52,199.5
"2010-12-29 00:28:30",464038,6.092,241.5,6.497,1.158,10.35,102.525,5.744,6.78,17.94,0,109.8,13.46,6.52,203.5
"2010-12-29 00:29:00",464039,6.358,241,4.627,0.949,10.89,102.5058,5.695,6.861,18.33,0,109.8,13.46,6.47,203.0
"2010-12-29 00:29:30",464040,5.86,241.5,5.903,1.15,9.74,102.4823,5.635,6.739,18.75,0,109.8,13.46,6.41,203.5
"2010-12-29 00:30:00",464041,5.179,236.3,6.329,1.192,8.04,102.4603,5.579,6.559,18.12,0,109.8,13.46,6.35,198.3
"2010-12-29 00:30:30",464042,4.158,229.2,2.597,0.133,5.774,102.4665,5.595,6.471,18.18,0,109.8,13.49,6.37,191.2
"2010-12-29 00:31:00",464043,4.148,236.2,3.47,0.679,7.098,102.4606,5.579,6.599,18.32,0,109.8,13.46,6.35,198.2
"2010-12-29 00:31:30",464044,5.93,246.1,5.468,1.074,9.97,102.4612,5.581,6.679,18.63,0,109.8,13.46,6.35,208.1
"2010-12-29 00:32:00",464045,5.695,248.2,5.858,1.156,10.12,102.4312,5.504,6.684,19.43,0,109.8,13.46,6.28,210.2
"2010-12-29 00:32:30",464046,5.672,245.6,5.98,1.159,9.97,102.4097,5.45,6.615,19.31,0,109.8,13.46,6.22,207.6
"2010-12-29 00:33:00",464047,4.986,242.1,6.161,1.108,7.583,102.3956,5.414,6.456,19.11,0,109.8,13.46,6.18,204.1
"2010-12-29 00:33:30",464048,4.183,234.5,1.957,0.119,5.716,102.3863,5.39,6.344,19.19,0,109.8,13.49,6.16,196.5
"2010-12-29 00:34:00",464049,5.446,237.9,6.446,1.269,7.923,102.3662,5.339,6.402,19.43,0,109.8,13.46,6.11,199.9
"2010-12-29 00:34:30",464050,5.856,239.6,5.663,1.252,9.49,102.366,5.338,6.424,19.43,0,109.8,13.46,6.11,201.6
"2010-12-29 00:35:00",464051,5.821,232.4,6.292,1.239,9.81,102.3672,5.341,6.468,19.09,0,109.8,13.47,6.11,194.4
"2010-12-29 00:35:30",464052,6.096,233.3,5.852,1.112,9.98,102.3663,5.339,6.504,19.12,0,109.7,13.47,6.11,195.3
"2010-12-29 00:36:00",464053,5.47,229.5,6.262,1.246,8.26,102.3669,5.34,6.305,19.16,0,109.8,13.47,6.11,191.5
"2010-12-29 00:36:30",464054,4.503,226.2,6.678,0.828,6.867,102.3663,5.339,6.413,19.3,0,109.8,13.47,6.11,188.2
"2010-12-29 00:37:00",464055,4.683,227.1,6.313,1.194,7.003,102.3672,5.341,6.27,19.22,0,109.8,13.47,6.11,189.1
"2010-12-29 00:37:30",464056,5.228,228.6,7.081,1.262,10,102.3712,5.351,6.426,18.93,0,109.8,13.47,6.12,190.6
"2010-12-29 00:38:00",464057,5.815,224.8,5.101,1.147,10.63,102.3955,5.413,6.458,18.7,0,109.8,13.47,6.18,186.8
"2010-12-29 00:38:30",464058,6.558,228.4,3.502,0.809,11.31,102.4107,5.452,6.538,18.58,0,109.8,13.47,6.22,190.4
"2010-12-29 00:39:00",464059,5.926,224.7,6.427,1.213,8.97,102.4303,5.502,6.439,18.88,0,109.8,13.47,6.27,186.7
"2010-12-29 00:39:30",464060,5.187,218.6,5.906,1.132,7.455,102.4362,5.517,6.312,18.6,0,109.8,13.47,6.29,180.6
"2010-12-29 00:40:00",464061,5.014,223.4,5.648,1.135,7.683,102.4353,5.515,6.447,18.8,0,109.8,13.47,6.29,185.4
"2010-12-29 00:40:30",464062,5.677,220.1,6.942,1.322,8.27,102.44,5.527,6.415,18.68,0,109.8,13.47,6.30,182.1
"2010-12-29 00:41:00",464063,6.114,224.7,7.262,1.297,9.8,102.4365,5.518,6.524,18.86,0,109.8,13.47,6.29,186.7
"2010-12-29 00:41:30",464064,6.698,229.7,5.496,0.916,11.38,102.4408,5.529,6.604,18.89,0,109.8,13.47,6.30,191.7
"2010-12-29 00:42:00",464065,6.345,224.6,6.487,1.103,10.28,102.4524,5.558,6.6,18.82,0,109.8,13.47,6.33,186.6
"2010-12-29 00:42:30",464066,5.426,219.2,6.691,1.181,8.27,102.4558,5.567,6.586,18.9,0,109.8,13.47,6.34,181.2
"2010-12-29 00:43:00",464067,5.586,221,7.062,1.228,8.1,102.4657,5.593,6.529,18.96,0,109.8,13.48,6.36,183.0
"2010-12-29 00:43:30",464068,5.146,217,4.454,1.003,7.545,102.4643,5.589,6.507,19.06,0,109.8,13.48,6.36,179.0
"2010-12-29 00:44:00",464069,6.392,222.1,6.084,1.089,9.82,102.4547,5.564,6.539,19,0,109.8,13.48,6.34,184.1
"2010-12-29 00:44:30",464070,6.377,222.2,5.679,1.087,10.77,102.4448,5.539,6.672,19.19,0,109.8,13.47,6.31,184.2
"2010-12-29 00:45:00",464071,6.067,220.6,5.203,1.256,10.08,102.4423,5.533,6.593,19.31,0,109.8,13.47,6.30,182.6
"2010-12-29 00:45:30",464072,5.358,229.1,8.14,1.234,9.45,102.4598,5.577,6.62,19.3,0,109.8,13.47,6.35,191.1
"2010-12-29 00:46:00",464073,5.16,224,7.996,1.319,7.856,102.4771,5.622,6.466,18.79,0,109.8,13.47,6.39,186.0
"2010-12-29 00:46:30",464074,4.911,220.4,7.812,1.224,8.3,102.4788,5.626,6.569,18.96,0,109.8,13.47,6.40,182.4
"2010-12-29 00:47:00",464075,5.423,214.4,5.696,1.248,8.93,102.4765,5.62,6.583,19.67,0,109.8,13.47,6.39,176.4
"2010-12-29 00:47:30",464076,6.01,218.7,7.147,1.232,9.72,102.4497,5.552,6.681,19.99,0,109.8,13.47,6.32,180.7
"2010-12-29 00:48:00",464077,6.75,223,4.158,0.883,10.83,102.416,5.466,6.637,19.97,0,109.8,13.47,6.24,185.0
"2010-12-29 00:48:30",464078,6.103,221.4,5.891,1.078,9.4,102.3948,5.411,6.484,19.84,0,109.8,13.47,6.18,183.4
"2010-12-29 00:49:00",464079,5.042,214.5,6.379,1.223,7.504,102.3753,5.362,6.35,19.94,0,109.8,13.47,6.13,176.5
"2010-12-29 00:49:30",464080,4.658,210.3,5.542,0.887,6.984,102.3708,5.35,6.372,19.95,0,109.8,13.47,6.12,172.3
"2010-12-29 00:50:00",464081,4.953,212.1,5.985,1.059,7.895,102.3535,5.306,6.361,19.9,0,109.8,13.47,6.08,174.1
"2010-12-29 00:50:30",464082,5.545,210.8,7.085,1.223,9.31,102.3416,5.276,6.394,20.09,0,109.8,13.47,6.05,172.8
"2010-12-29 00:51:00",464083,5.845,206.9,6.432,1.128,9.96,102.3414,5.275,6.44,20.14,0,109.8,13.47,6.05,168.9
"2010-12-29 00:51:30",464084,6.086,211.7,6.559,1.157,9.41,102.3414,5.275,6.391,20.24,0,109.8,13.47,6.05,173.7
"2010-12-29 00:52:00",464085,5.009,209.2,7.567,1.189,7.383,102.3346,5.258,6.33,20.21,0,109.8,13.47,6.03,171.2
"2010-12-29 00:52:30",464086,5.467,213.4,6.728,1.354,7.93,102.3185,5.216,6.16,20.07,0,109.8,13.47,5.99,175.4
"2010-12-29 00:53:00",464087,4.6,206.1,5.39,0.87,6.708,102.3074,5.188,6.203,20.31,0,109.8,13.47,5.96,168.1
"2010-12-29 00:53:30",464088,5.996,214.7,5.723,1.128,9.71,102.3074,5.188,6.333,20.38,0,109.8,13.48,5.96,176.7
"2010-12-29 00:54:00",464089,5.151,207.1,7.08,1.25,8.67,102.3074,5.188,6.272,20.42,0,109.8,13.48,5.96,169.1
"2010-12-29 00:54:30",464090,5.851,208.9,5.855,1.093,9.36,102.2967,5.161,6.268,20.54,0,109.8,13.48,5.93,170.9
"2010-12-29 00:55:00",464091,5.521,204.4,6.932,1.203,9.34,102.2879,5.138,6.274,20.63,0,109.8,13.48,5.91,166.4
"2010-12-29 00:55:30",464092,5.269,201,6.271,1.301,8.04,102.2743,5.104,6.06,20.46,0,109.8,13.48,5.87,163.0
"2010-12-29 00:56:00",464093,4.383,194.2,5.017,0.887,6.706,102.2735,5.102,6.11,20.7,0,109.8,13.48,5.87,156.2
"2010-12-29 00:56:30",464094,5.373,196.4,7.248,1.29,8.41,102.2735,5.102,6.132,20.82,0,109.8,13.48,5.87,158.4
"2010-12-29 00:57:00",464095,4.416,186.2,2.997,0.618,6.363,102.2732,5.101,6.07,20.8,0,109.8,13.48,5.87,148.2
"2010-12-29 00:57:30",464096,6.394,195.2,3.045,0.91,10.59,102.2647,5.079,6.27,20.92,0,109.8,13.48,5.85,157.2
"2010-12-29 00:58:00",464097,5.438,190.6,6.112,1.302,8.94,102.2497,5.041,6.173,20.73,0,109.8,13.48,5.81,152.6
"2010-12-29 00:58:30",464098,4.637,186.8,6.551,1.267,7.427,102.2427,5.023,5.998,20.56,0,109.8,13.48,5.79,148.8
"2010-12-29 00:59:00",464099,4.817,188.4,7.725,1.246,7.501,102.2398,5.016,6.04,20.77,0,109.8,13.48,5.79,150.4
"2010-12-29 00:59:30",464100,4.87,185.4,5.882,1.277,7.342,102.2396,5.015,6.039,20.81,0,109.8,13.48,5.78,147.4
"2010-12-29 01:00:00",464101,4.904,187.9,7.039,1.299,8.08,102.2396,5.015,6.005,20.93,0,109.8,13.48,5.78,149.9
"2010-12-29 01:00:30",464102,5.131,194.6,7.698,1.233,9.24,102.2396,5.015,6.082,21.17,0,109.8,13.49,5.78,156.6
"2010-12-29 01:01:00",464103,5.794,200.8,5.017,0.896,10.5,102.2396,5.015,6.152,21.03,0,109.8,13.49,5.78,162.8
"2010-12-29 01:01:30",464104,5.132,199,6.306,1.233,8.71,102.2396,5.015,6.089,20.87,0,109.8,13.48,5.78,161.0
"2010-12-29 01:02:00",464105,4.869,196.5,7.149,1.243,7.613,102.2336,5,5.981,20.79,0,109.8,13.48,5.77,158.5
"2010-12-29 01:02:30",464106,4.541,194.7,5.734,1.149,7.123,102.2169,4.957,5.981,20.9,0,109.8,13.48,5.73,156.7
"2010-12-29 01:03:00",464107,4.356,196.7,6.254,0.928,6.749,102.2068,4.931,5.926,20.83,0,109.8,13.48,5.70,158.7
"2010-12-29 01:03:30",464108,5.421,199.5,5.994,1.213,8.45,102.2056,4.928,5.92,20.96,0,109.8,13.48,5.70,161.5
"2010-12-29 01:04:00",464109,6.284,199.2,4.654,1.045,10.35,102.2056,4.928,6.072,21.12,0,109.8,13.48,5.70,161.2
"2010-12-29 01:04:30",464110,7.036,198.2,6.075,0.99,10.3,102.2056,4.928,6.096,20.78,0,109.8,13.48,5.70,160.2
"2010-12-29 01:05:00",464111,5.909,203,10.28,1.385,8.28,102.2234,4.974,5.986,19.57,0,109.8,13.48,5.74,165.0
"2010-12-29 01:05:30",464112,5.945,207.4,3.751,1.145,8.23,102.2831,5.126,6.028,18.66,0,109.8,13.48,5.90,169.4
"2010-12-29 01:06:00",464113,4.768,205.9,8.35,0.294,6.527,102.3465,5.288,6.004,18.13,0,109.8,13.51,6.06,167.9
"2010-12-29 01:06:30",464114,5.777,199.1,5.641,1.379,8.88,102.3965,5.416,6.26,18.19,0,109.8,13.48,6.19,161.1
"2010-12-29 01:07:00",464115,6.528,205.3,6.795,1.17,10.68,102.4129,5.458,6.478,18.78,0,109.8,13.48,6.23,167.3
"2010-12-29 01:07:30",464116,6.619,213.2,7.938,1.03,11.73,102.4409,5.529,6.499,18.26,0,109.8,13.49,6.30,175.2
"2010-12-29 01:08:00",464117,6.441,213.4,6.353,0.809,11.05,102.4593,5.576,6.591,18.56,0,109.8,13.49,6.35,175.4
"2010-12-29 01:08:30",464118,4.858,210.1,4.87,1.224,7.897,102.4805,5.63,6.4,18.27,0,109.8,13.49,6.40,172.1
"2010-12-29 01:09:00",464119,4.329,214.9,7.082,0.419,6.611,102.5235,5.74,6.459,17.37,0,109.8,13.52,6.51,176.9
"2010-12-29 01:09:30",464120,4.448,204,4.954,0.657,6.716,102.547,5.8,6.485,17.56,0,109.8,13.49,6.57,166.0
"2010-12-29 01:10:00",464121,5.437,200.7,6.587,1.228,8.99,102.549,5.805,6.672,18.08,0,109.8,13.49,6.58,162.7
"2010-12-29 01:10:30",464122,6.415,209.4,4.95,0.738,11.93,102.5481,5.803,6.854,18.29,0,109.8,13.49,6.58,171.4
"2010-12-29 01:11:00",464123,6.273,213.3,4.512,0.946,11.57,102.5484,5.804,6.872,18.07,0,109.8,13.49,6.58,175.3
"2010-12-29 01:11:30",464124,5.686,211.4,7.058,1.219,9.3,102.547,5.8,6.736,17.41,0,109.8,13.49,6.57,173.4
"2010-12-29 01:12:00",464125,3.904,204.6,6.627,0.302,6.468,102.5659,5.849,6.611,16.82,0,109.8,13.52,6.62,166.6
"2010-12-29 01:12:30",464126,4.024,200,6.858,0.265,6.434,102.5815,5.888,6.657,16.92,0,109.8,13.53,6.66,162.0
"2010-12-29 01:13:00",464127,6.164,213.1,6.938,1.252,9.53,102.5827,5.891,6.827,16.89,0,109.8,13.49,6.66,175.1
"2010-12-29 01:13:30",464128,6.382,220,6.215,1.159,11.41,102.5835,5.893,6.972,16.95,0,109.8,13.49,6.67,182.0
"2010-12-29 01:14:00",464129,6.962,222,4.666,0.804,11.75,102.6022,5.941,7.054,16.8,0,109.8,13.49,6.71,184.0
"2010-12-29 01:14:30",464130,6.935,222,4.935,0.795,11.17,102.6005,5.937,6.974,17.2,0,109.8,13.49,6.71,184.0
"2010-12-29 01:15:00",464131,5.998,214.8,9.34,1.225,8.46,102.6002,5.936,6.875,16.99,0,109.8,13.49,6.71,176.8
"2010-12-29 01:15:30",464132,4.401,213.7,5.3,0.256,6.596,102.611,5.964,6.757,16.64,0,109.8,13.52,6.74,175.7
"2010-12-29 01:16:00",464133,5.142,218.2,6.317,1.079,8.93,102.6163,5.977,6.932,16.58,0,109.8,13.49,6.75,180.2
"2010-12-29 01:16:30",464134,5.513,226.9,7.766,1.226,10.17,102.6424,6.044,7.047,16.44,0,109.9,13.49,6.82,188.9
"2010-12-29 01:17:00",464135,6.28,227.7,5.81,1.058,11.64,102.6548,6.076,7.096,16.68,0,109.8,13.49,6.85,189.7
"2010-12-29 01:17:30",464136,6.741,222,4.11,0.957,11.44,102.6636,6.098,7.213,17.32,0,109.8,13.49,6.87,184.0
"2010-12-29 01:18:00",464137,5.451,211.7,5.026,1.099,7.472,102.6503,6.064,6.975,17.65,0,109.8,13.49,6.84,173.7
"2010-12-29 01:18:30",464138,4.964,205.5,1.902,0.174,6.204,102.6197,5.986,6.86,17.8,0,109.8,13.51,6.76,167.5
"2010-12-29 01:19:00",464139,6.574,215,6.833,1.309,8.43,102.5997,5.935,6.972,18.06,0,109.8,13.48,6.71,177.0
"2010-12-29 01:19:30",464140,5.943,231,12.79,1.272,9.56,102.5931,5.918,7.001,17.53,0,109.8,13.48,6.69,193.0
"2010-12-29 01:20:00",464141,5.923,245.4,6.366,1.033,12.25,102.6243,5.998,7.142,16.34,0,109.8,13.48,6.77,207.4
"2010-12-29 01:20:30",464142,6.538,234.6,4.543,0.838,11.8,102.6559,6.078,7.191,16.48,0,109.8,13.48,6.85,196.6
"2010-12-29 01:21:00",464143,5.114,229.7,4.357,1.139,7.992,102.682,6.145,7.034,16.86,0,109.8,13.48,6.92,191.7
"2010-12-29 01:21:30",464144,4.446,232.3,7.867,0.749,7.304,102.6885,6.162,6.952,16.48,0,109.8,13.48,6.94,194.3
"2010-12-29 01:22:00",464145,4.72,236.5,5.653,0.991,7.408,102.6974,6.184,7.042,16.1,0,109.8,13.48,6.96,198.5
"2010-12-29 01:22:30",464146,5.651,241.9,5.071,1.298,9.47,102.7124,6.223,7.04,15.76,0,109.8,13.48,7.00,203.9
"2010-12-29 01:23:00",464147,6.489,244.1,5.979,1.037,11.06,102.7231,6.25,7.249,15.86,0,109.8,13.49,7.02,206.1
"2010-12-29 01:23:30",464148,6.629,256,7.362,0.956,11.69,102.728,6.263,7.339,15.4,0,109.8,13.49,7.04,218.0
"2010-12-29 01:24:00",464149,5.911,247.3,7.424,1.116,10.28,102.7265,6.259,7.332,15.62,0,109.8,13.49,7.03,209.3
"2010-12-29 01:24:30",464150,4.85,247.4,8.92,1.34,8.13,102.7254,6.256,7.081,15.51,0,109.8,13.49,7.03,209.4
"2010-12-29 01:25:00",464151,4.954,250.9,8.44,1.192,8.57,102.7271,6.26,7.194,15.51,0,109.8,13.49,7.03,212.9
"2010-12-29 01:25:30",464152,5.063,249.9,6.877,1.312,8.67,102.7257,6.257,7.198,15.54,0,109.8,13.49,7.03,211.9
"2010-12-29 01:26:00",464153,5.419,244.1,5.77,1.111,7.991,102.7144,6.228,7.139,15.38,0,109.8,13.49,7.00,206.1
"2010-12-29 01:26:30",464154,6.585,260.5,8.57,0.937,11.31,102.7033,6.2,7.361,15.49,0,109.8,13.49,6.97,222.5
"2010-12-29 01:27:00",464155,6.703,269.1,5.643,1.088,10.98,102.7059,6.206,7.335,14.55,0,109.8,13.49,6.98,231.1
"2010-12-29 01:27:30",464156,5.542,262.6,7.539,1.165,9.33,102.7093,6.215,7.187,14.56,0,109.8,13.49,6.99,224.6
"2010-12-29 01:28:00",464157,4.732,256.2,4.932,1.205,8.3,102.7025,6.197,7.199,15.24,0,109.8,13.49,6.97,218.2
"2010-12-29 01:28:30",464158,4.519,248.1,5.545,0.901,7.108,102.692,6.171,7.169,15.69,0,109.8,13.49,6.94,210.1
"2010-12-29 01:29:00",464159,4.428,253.3,6.869,0.849,7.224,102.6903,6.166,7.065,15.61,0,109.8,13.49,6.94,215.3
"2010-12-29 01:29:30",464160,5.03,255.2,6.601,1.033,9.45,102.6912,6.168,7.207,15.92,0,109.8,13.49,6.94,217.2
"2010-12-29 01:30:00",464161,6.513,252.9,6.833,1.115,10.87,102.6839,6.15,7.317,15.98,0,109.8,13.49,6.92,214.9
"2010-12-29 01:30:30",464162,5.914,255.5,4.906,1.25,10.21,102.6773,6.133,7.25,15.34,0,109.8,13.49,6.91,217.5
"2010-12-29 01:31:00",464163,4.66,249,10.63,1.498,8.57,102.6761,6.13,7.037,15.53,0,109.8,13.49,6.90,211.0
"2010-12-29 01:31:30",464164,4.582,241.6,5.415,1.491,7.966,102.6682,6.11,7.143,16.26,0,109.8,13.49,6.88,203.6
"2010-12-29 01:32:00",464165,3.837,234.9,5.27,0.123,6.334,102.6629,6.096,6.996,16.2,0,109.8,13.53,6.87,196.9
"2010-12-29 01:32:30",464166,4.555,252.8,8.09,1.054,7.772,102.6609,6.091,6.972,15.54,0,109.8,13.49,6.86,214.8
"2010-12-29 01:33:00",464167,5.886,245.5,7.583,1.28,10.29,102.6618,6.093,7.156,15.9,0,109.8,13.49,6.87,207.5
"2010-12-29 01:33:30",464168,6.306,238,5.237,0.981,11.18,102.6607,6.091,7.249,16.47,0,109.8,13.49,6.86,200.0
"2010-12-29 01:34:00",464169,6.095,234.7,6.203,1.237,10.42,102.6592,6.087,7.205,16.41,0,109.8,13.49,6.86,196.7
"2010-12-29 01:34:30",464170,5.178,233,6.222,1.365,9.24,102.6604,6.09,7.132,16.25,0,109.8,13.49,6.86,195.0
"2010-12-29 01:35:00",464171,4.589,226.9,4.775,0.897,7.15,102.6552,6.077,6.949,15.71,0,109.8,13.49,6.85,188.9
"2010-12-29 01:35:30",464172,4.496,226.4,5.672,1.109,8.01,102.6587,6.085,7.086,15.55,0,109.8,13.49,6.86,188.4
"2010-12-29 01:36:00",464173,4.449,229.2,3.701,1.06,7.976,102.6584,6.085,6.934,15.76,0,109.8,13.49,6.86,191.2
"2010-12-29 01:36:30",464174,5.431,236.9,7.252,1.232,10.3,102.6601,6.089,7.217,15.89,0,109.8,13.49,6.86,198.9
"2010-12-29 01:37:00",464175,5.774,240.3,7.652,1.105,10.65,102.6618,6.094,7.189,15.89,0,109.8,13.49,6.87,202.3
"2010-12-29 01:37:30",464176,5.486,236.6,4.998,1.259,10.34,102.6595,6.088,7.207,16.08,0,109.8,13.49,6.86,198.6
"2010-12-29 01:38:00",464177,3.741,220.4,1.021,0.492,6.467,102.6575,6.082,7.011,16.34,0,109.8,13.49,6.86,182.4
"2010-12-29 01:38:30",464178,5.156,225.8,6.105,1.342,8.59,102.6584,6.085,6.975,16.45,0,109.8,13.49,6.86,187.8
"2010-12-29 01:39:00",464179,4.36,215.7,4.888,0.947,7.985,102.6465,6.054,7.056,16.76,0,109.8,13.49,6.83,177.7
"2010-12-29 01:39:30",464180,6.679,226.7,2.151,0.681,11.4,102.6364,6.029,7.116,16.9,0,109.8,13.49,6.80,188.7
"2010-12-29 01:40:00",464181,6.609,226.2,8.36,1.016,10.81,102.6324,6.018,7.165,17.18,0,109.8,13.49,6.79,188.2
"2010-12-29 01:40:30",464182,6.216,222.1,6.892,1.062,11.14,102.6296,6.011,7.123,17.27,0,109.8,13.49,6.78,184.1
"2010-12-29 01:41:00",464183,5.435,214.7,5.619,1.364,8.67,102.6279,6.007,7.018,17.21,0,109.8,13.49,6.78,176.7
"2010-12-29 01:41:30",464184,5.301,216.7,4.521,0.455,7.015,102.6282,6.008,6.988,17.1,0,109.8,13.53,6.78,178.7
"2010-12-29 01:42:00",464185,5.514,218.9,5.819,1.158,8.59,102.627,6.005,6.924,16.96,0,109.8,13.49,6.78,180.9
"2010-12-29 01:42:30",464186,5.666,222.8,8.92,1.147,10.13,102.63,6.012,7.151,16.92,0,109.8,13.49,6.79,184.8
"2010-12-29 01:43:00",464187,6.283,235.6,6.722,1.146,10.73,102.6297,6.011,7.156,16.71,0,109.8,13.49,6.78,197.6
"2010-12-29 01:43:30",464188,6.01,242.2,5.999,1.174,10.55,102.6297,6.011,7.123,16.15,0,109.9,13.49,6.78,204.2
"2010-12-29 01:44:00",464189,4.259,240.8,3.424,1.183,7.554,102.6293,6.011,6.884,15.05,0,109.8,13.49,6.78,202.8
"2010-12-29 01:44:30",464190,3.717,229.8,2.564,0.146,6.48,102.6421,6.043,6.952,15.14,0,109.8,13.53,6.82,191.8
"2010-12-29 01:45:00",464191,5.056,240.5,9.15,1.289,8.72,102.6438,6.047,6.96,15.85,0,109.8,13.49,6.82,202.5
"2010-12-29 01:45:30",464192,4.257,232.4,6.148,1.045,7.847,102.6401,6.038,7.045,16.26,0,109.8,13.49,6.81,194.4
"2010-12-29 01:46:00",464193,5.211,232.6,6.977,1.482,9.58,102.6296,6.011,7.104,16.7,0,109.8,13.49,6.78,194.6
"2010-12-29 01:46:30",464194,6.787,244.2,4.523,0.601,11.53,102.63,6.012,7.16,16.67,0,109.8,13.49,6.79,206.2
"2010-12-29 01:47:00",464195,5.212,243.7,8.87,1.269,9,102.6279,6.007,7.037,16.28,0,109.8,13.49,6.78,205.7
"2010-12-29 01:47:30",464196,4.262,234.6,2.367,0.185,6.447,102.6262,6.002,6.863,16.19,0,109.8,13.53,6.78,196.6
"2010-12-29 01:48:00",464197,5.097,237.8,6.634,1.122,8.63,102.6268,6.004,7.004,16.58,0,109.8,13.49,6.78,199.8
"2010-12-29 01:48:30",464198,5.241,230.2,6.576,1.419,8.48,102.6183,5.982,7.016,16.76,0,109.8,13.5,6.76,192.2
"2010-12-29 01:49:00",464199,5.829,229.1,8.76,1.3,9.84,102.6059,5.951,6.916,16.95,0,109.8,13.5,6.72,191.1